Location: Maiden
(35.5760°N, 81.2120°W)
Time: 06:28:41
(UTC-04:00)

ATLAS 2AS CENTAUR R/B - Pass Details

Date: 14 June 2018
Orbit: 912 x 1300 km, 63.7° (Epoch: 17 June)

Event Time Altitude Azimuth Distance (km) Brightness Sun altitude
Exits shadow 21:56:48 14° 108° (ESE) 2,935 4.4 -13.2°
Maximum altitude 21:57:33 14° 102° (ESE) 2,932 4.5 -13.3°
Drops below altitude 10° 22:01:11 10° 74° (ENE) 3,269 4.9 -13.9°
Sets 22:05:45 0° 52° (NE) 4,277 5.8 -14.5°
